Theta_e
324 324 327 324 309 307 304 305 310 309 312 314 317 317 315 310 310 307 309 309 311 315 323 330 332 339 344 344 345 345 344 344 343 344 344 344 344 342 342 340 339 338 339 338 339 342 342 342 341
318 322 326 317 303 300 302 308 307 311 316 315 313 314 314 307 306 305 306 309 311 314 317 323 328 332 336 338 340 342 343 344 344 344 344 344 344 344 343 342 341 340 339 337 336 340 340 339 340
318 323 318 312 304 300 303 308 310 313 317 315 310 309 310 305 304 306 307 308 311 313 315 319 323 325 328 330 332 333 334 336 338 339 341 342 343 343 343 342 343 342 341 339 336 337 341 341 339
322 323 319 308 305 305 306 310 312 312 313 316 312 308 305 304 305 306 307 308 311 311 312 315 318 320 322 323 324 324 325 328 329 329 335 338 338 338 339 341 342 342 342 342 340 338 340 343 342
322 320 311 308 309 309 309 311 312 311 312 311 310 307 304 303 305 305 306 307 307 308 309 309 314 315 317 318 319 319 319 320 321 321 321 323 323 325 328 331 335 339 341 342 342 341 342 340 342
314 318 308 306 309 309 309 309 310 312 310 308 309 306 305 306 304 305 305 305 305 305 306 307 310 311 313 314 315 316 316 316 316 316 316 316 316 318 318 320 323 327 330 331 336 340 340 340 340
312 312 308 310 308 306 306 308 307 309 308 306 308 305 304 302 305 304 304 304 304 304 306 307 307 309 312 311 311 312 313 313 313 313 313 312 312 313 313 314 316 318 320 322 327 331 334 338 340
315 313 308 309 306 305 308 305 308 308 306 302 307 305 303 304 304 303 303 303 304 305 305 306 307 307 308 309 307 309 309 310 309 309 310 312 315 315 315 315 313 315 316 316 318 323 327 331 335
316 307 304 305 306 308 306 303 301 300 301 300 302 301 302 305 303 302 302 303 303 304 305 305 306 306 307 306 305 309 309 307 311 312 312 311 309 310 309 312 311 312 312 313 315 317 318 323 328
310 305 304 308 310 307 303 305 302 299 300 299 299 300 301 302 301 300 301 301 302 303 304 305 305 305 306 304 307 308 307 309 309 309 309 309 309 309 308 310 312 312 312 312 314 315 317 318 327
309 304 305 301 301 302 303 300 300 299 302 304 302 301 299 300 300 300 301 302 302 304 304 304 304 305 305 306 306 307 307 308 308 308 308 308 308 309 309 309 310 311 310 310 311 311 311 313 312
301 299 299 297 295 297 298 299 297 299 305 298 302 301 300 299 299 299 300 301 302 303 304 304 304 304 305 305 305 306 305 306 307 307 308 307 307 308 308 308 308 310 309 309 309 310 311 310 310
302 297 295 293 292 293 293 295 297 298 302 302 297 297 299 299 300 301 302 302 302 302 303 304 304 304 304 304 305 305 305 305 306 306 307 307 306 306 306 307 307 308 308 308 308 308 308 309 309
296 295 294 293 293 292 290 295 291 299 300 300 297 296 298 298 300 300 301 301 301 302 302 304 303 304 303 303 304 304 305 305 305 306 306 307 306 306 305 306 306 307 308 308 308 307 307 307 308
294 293 292 292 292 291 291 290 291 298 294 297 296 296 297 298 300 300 301 300 301 302 303 303 303 303 302 303 303 304 305 304 304 305 306 306 306 305 305 305 305 306 307 306 307 307 307 307 306
291 292 292 293 291 291 290 290 296 298 294 294 296 296 297 297 298 300 301 301 302 302 301 302 301 301 302 303 303 303 304 304 304 305 306 306 305 305 304 304 304 306 306 305 305 305 305 305 305
290 289 289 289 290 290 289 291 297 295 295 295 296 297 297 297 298 299 301 301 302 302 301 302 302 302 302 302 303 303 303 304 305 305 305 305 304 304 303 303 304 305 304 304 303 304 304 303 304
288 286 288 289 288 288 289 288 294 296 294 295 296 297 297 297 297 299 300 301 301 302 301 302 302 302 302 302 303 304 304 304 304 305 305 304 303 303 302 302 303 303 303 303 303 302 303 302 302
288 288 288 289 287 286 289 290 293 296 297 296 296 297 297 297 299 300 300 300 301 301 300 301 301 301 301 302 301 302 301 302 303 304 304 303 303 302 301 301 301 302 300 300 300 300 300 300 302
287 287 288 288 286 286 290 289 293 296 297 297 298 297 298 298 299 299 299 300 299 300 300 300 300 300 301 301 302 301 300 301 302 303 303 303 302 301 300 300 300 299 299 298 298 299 298 299 300
287 287 287 286 287 288 287 290 293 296 294 296 298 297 298 300 299 299 298 298 299 299 300 300 300 300 301 300 300 300 301 302 301 302 301 301 301 301 300 299 299 298 298 296 295 294 293 292 295
285 286 285 284 286 286 287 285 293 297 294 293 295 295 296 297 298 299 298 298 298 301 303 302 301 300 300 300 299 299 298 297 299 299 300 300 300 300 299 298 298 297 298 296 295 294 293 292 289
283 285 285 284 285 284 285 284 292 294 293 294 295 298 297 298 297 296 298 299 299 302 303 302 300 300 299 299 299 299 298 299 299 299 299 299 299 299 298 297 296 295 295 295 295 294 293 293 291
285 284 284 284 285 282 286 284 290 294 294 293 294 296 296 296 296 297 297 299 299 302 303 302 299 299 299 299 299 298 298 297 297 297 296 297 297 297 297 296 295 294 294 294 294 294 294 293 293
284 284 286 284 281 283 282 281 289 294 293 294 294 295 296 296 296 296 296 297 299 300 299 300 299 298 298 298 298 298 297 297 296 296 295 294 294 294 294 294 293 293 293 293 293 292 292 292 291
283 285 285 282 282 283 281 280 289 295 294 295 295 296 296 295 296 296 296 297 297 298 298 299 299 298 298 297 297 298 297 296 296 295 294 294 293 293 294 293 292 292 292 292 292 291 290 290 290
283 281 285 283 277 279 286 289 293 296 294 295 294 294 295 296 296 297 297 298 298 298 298 299 298 298 297 297 297 297 296 295 294 294 294 293 293 293 292 292 292 292 292 292 292 291 290 290 289
283 284 281 283 280 279 284 284 287 292 292 293 294 294 296 297 297 296 297 297 297 298 298 298 298 297 297 296 296 296 295 294 294 293 293 293 292 292 291 291 291 291 291 291 291 290 290 288 288
279 281 281 282 283 281 281 285 294 294 295 294 295 296 297 297 297 297 297 298 297 297 297 297 295 295 295 295 296 295 294 294 293 292 292 292 292 291 291 291 291 291 290 290 290 289 288 286 286
281 283 284 283 282 281 280 283 296 293 293 295 296 295 297 297 297 298 298 298 297 296 296 295 295 294 294 296 295 294 293 293 292 292 292 292 291 291 291 291 291 291 290 290 289 287 286 285 284
Wind_Speed
19 12 6 6 7 6 9 5 3 8 8 2 0 4 5 10 7 3 8 7 5 6 8 12 16 14 13 11 10 8 6 6 6 7 10 10 9 9 9 9 9 10 10 9 9 8 9 8 6
12 12 6 5 8 9 8 6 10 7 8 8 5 2 2 6 6 8 9 5 4 5 6 11 11 13 13 13 14 13 12 11 9 9 9 9 9 9 11 11 10 10 10 10 9 8 5 4 6
12 7 7 5 9 12 5 9 8 8 9 6 4 2 2 7 6 5 6 3 2 5 6 9 12 13 13 14 14 14 15 14 12 14 15 14 13 13 9 8 11 12 12 11 10 9 8 8 8
6 5 5 10 14 11 7 7 8 11 5 4 2 4 4 5 6 4 4 2 2 4 6 10 11 12 12 13 13 14 13 12 12 14 12 12 14 14 14 12 12 11 12 13 13 12 11 10 11
7 6 11 13 17 3 2 7 9 11 9 7 6 4 2 6 6 5 5 3 2 4 5 8 9 10 11 11 12 12 12 12 14 14 13 12 13 13 14 14 14 14 13 14 15 15 13 12 12
7 6 10 14 16 7 6 7 9 10 8 6 5 4 5 8 7 6 4 5 3 5 3 4 8 8 10 11 11 12 12 13 13 13 12 12 12 12 13 12 12 12 12 13 15 16 18 16 14
13 9 15 16 13 9 10 8 11 11 9 9 3 5 6 9 7 6 5 5 4 5 5 4 5 6 9 10 10 10 11 11 11 12 12 11 9 11 11 11 12 13 12 12 12 13 15 16 17
7 8 16 11 10 12 10 11 4 7 8 5 1 4 3 12 10 8 6 5 5 5 5 4 4 4 4 4 5 5 7 8 8 7 10 9 7 6 9 6 13 14 14 14 13 12 13 14 16
3 8 11 14 11 11 11 13 5 3 4 4 6 2 5 14 11 9 7 7 6 5 5 4 3 3 2 2 3 6 4 3 2 4 5 7 7 8 10 7 9 12 13 15 15 14 14 15 15
10 11 11 5 1 3 11 13 10 7 11 11 10 7 8 12 11 11 10 9 9 7 6 4 2 2 1 2 4 4 4 4 4 6 8 6 8 7 8 8 7 10 9 14 12 13 13 13 6
7 9 4 4 2 5 8 8 3 8 11 11 11 14 13 14 13 12 11 9 9 7 5 5 4 2 1 2 3 2 2 3 3 4 6 6 6 6 6 6 6 7 8 7 10 10 8 9 8
7 1 3 3 2 2 5 1 6 14 8 5 5 6 16 17 15 14 12 10 8 6 6 5 4 3 1 3 2 3 3 4 4 6 7 6 5 6 7 6 8 6 6 9 8 6 9 11 11
7 4 2 2 2 1 2 8 10 14 16 8 4 7 16 16 16 14 12 10 9 8 7 6 5 4 2 3 3 3 4 4 5 5 5 6 6 6 7 7 7 7 8 8 8 8 9 10 11
1 3 3 3 2 2 4 7 1 7 10 15 12 13 15 17 16 14 13 11 10 9 8 6 5 4 3 4 4 5 4 5 5 5 5 7 6 7 8 8 8 8 7 7 8 9 9 9 10
5 2 3 7 4 2 2 10 20 18 3 14 17 15 16 16 16 16 13 12 11 10 8 7 6 4 4 4 4 4 4 5 5 5 7 8 8 9 10 8 8 8 7 11 9 10 9 9 10
4 3 5 7 5 4 2 11 4 13 13 13 17 17 16 18 17 15 14 13 12 10 10 8 6 6 4 4 4 4 4 5 5 5 6 7 8 10 9 8 8 8 8 8 8 9 9 9 9
6 5 9 4 5 1 10 10 7 4 10 14 15 16 17 16 17 16 16 14 12 11 10 9 9 7 5 4 4 4 5 4 4 5 5 7 8 9 9 8 8 10 8 8 9 9 10 10 10
6 6 4 8 5 7 10 21 17 8 9 12 13 15 16 17 20 18 17 15 13 12 12 11 8 7 5 3 3 4 4 4 4 5 4 7 7 9 9 8 10 9 8 8 8 11 10 11 11
5 5 7 4 3 4 14 19 19 16 16 17 18 15 15 18 17 16 17 16 14 14 14 12 10 8 5 3 3 4 4 5 5 5 7 7 8 9 10 8 10 10 9 11 12 11 12 9 10
5 7 10 3 2 4 10 18 22 20 21 21 19 18 19 18 17 17 17 16 17 16 14 13 11 8 6 3 2 3 4 4 5 5 6 7 8 10 9 10 10 11 9 12 12 12 10 10 10
6 8 3 4 4 6 10 12 10 4 6 11 16 14 16 17 17 17 19 19 17 16 15 13 11 9 7 5 3 4 5 5 5 6 7 7 10 9 10 11 10 11 10 9 10 10 13 10 9
6 2 1 1 3 5 2 9 10 6 8 9 9 11 11 12 11 15 19 19 18 15 12 12 10 9 7 7 5 4 4 6 6 7 6 7 9 10 10 11 11 11 9 10 9 9 10 10 12
3 2 2 2 4 5 7 6 5 2 6 6 3 10 10 10 11 13 15 17 17 13 11 9 10 10 8 6 5 3 5 4 5 6 9 9 8 9 9 9 11 11 9 11 12 12 11 10 12
7 2 1 1 3 5 6 5 4 7 2 5 4 7 6 7 8 9 11 13 15 11 9 9 11 9 8 7 6 5 5 6 6 7 7 7 7 7 9 9 10 11 11 11 11 12 14 13 13
2 2 2 3 3 5 2 4 12 3 5 3 8 6 7 7 8 9 12 14 13 12 11 10 11 10 9 8 5 4 5 5 7 7 6 9 8 7 9 10 10 9 12 12 13 13 14 14 15
7 3 4 5 4 2 2 8 6 2 4 2 4 6 7 8 8 9 11 12 12 12 12 11 10 9 8 7 6 4 4 4 4 6 6 6 7 8 10 11 12 14 14 12 13 12 12 15 15
7 7 3 1 2 3 7 9 13 7 14 12 10 10 10 9 9 9 9 10 11 11 12 12 11 8 8 7 5 5 5 5 5 7 7 6 8 8 10 12 12 13 13 13 14 12 15 15 16
5 2 4 4 4 6 5 6 12 3 6 6 11 14 11 10 9 8 8 9 10 11 11 11 10 10 8 7 6 5 4 4 5 6 7 8 8 10 11 12 13 13 13 14 15 14 15 17 14
6 5 3 2 3 4 5 5 3 3 6 4 3 8 10 9 7 9 8 8 9 10 11 12 11 10 8 7 7 6 5 4 5 6 6 8 9 10 11 12 13 13 14 14 15 17 19 19 18
2 6 11 6 7 5 3 11 1 1 2 3 6 6 5 5 6 8 7 7 9 11 12 12 10 10 8 8 8 6 5 5 5 5 6 7 9 10 10 12 12 13 14 15 16 18 18 20 20
Wind_Direction
305 314 298 259 236 235 241 175 1 162 165 89 38 285 22 37 357 32 126 50 28 27 20 30 15 17 29 36 27 16 5 348 329 291 262 252 249 254 257 262 268 279 285 290 306 307 271 268 249
307 312 239 273 253 225 222 144 201 166 103 125 128 166 173 87 80 116 158 47 29 39 29 37 19 31 33 33 34 34 31 29 21 353 323 299 280 272 258 262 266 272 277 285 285 299 287 230 213
275 279 279 258 242 252 264 174 166 158 149 170 144 317 68 111 114 100 68 40 34 54 42 39 29 36 41 40 42 42 40 33 30 27 16 11 6 356 330 301 272 276 275 276 278 269 258 251 231
286 209 231 249 248 244 282 178 156 158 169 202 226 176 110 28 124 74 98 66 68 63 59 54 36 39 42 44 43 43 43 41 38 38 24 16 23 20 7 357 333 296 279 272 274 273 267 250 235
235 254 251 238 249 252 230 159 180 181 164 167 187 140 115 154 121 130 114 92 67 63 49 68 50 48 47 47 47 46 42 37 35 33 27 17 18 18 13 12 8 352 327 302 277 271 264 260 251
239 261 238 240 238 185 205 177 190 200 169 137 200 169 132 124 163 130 132 112 98 93 77 74 101 68 57 51 48 44 40 36 34 27 21 13 15 14 9 4 6 356 344 346 344 320 291 277 257
246 228 250 256 266 169 202 182 200 204 181 188 15 233 92 171 144 143 140 127 127 119 117 104 88 122 109 69 52 48 43 38 33 28 20 12 5 9 7 357 357 345 339 338 336 318 316 308 276
263 256 258 253 242 229 162 184 211 213 187 76 254 228 195 170 155 155 159 157 157 149 138 118 97 74 67 91 67 53 42 36 30 17 8 332 304 9 10 353 357 339 335 330 323 318 315 312 306
254 241 241 238 239 223 153 195 173 51 214 196 186 274 78 131 158 171 177 183 174 164 166 142 123 91 57 62 108 185 153 209 261 354 5 338 357 346 344 351 335 327 326 324 316 316 311 306 285
220 235 253 20 326 231 181 208 172 205 202 214 210 187 155 158 175 186 193 191 193 183 172 152 131 81 25 1 12 9 10 4 3 3 356 356 344 343 315 303 293 285 295 302 296 303 295 276 309
195 250 85 89 67 291 178 218 196 227 233 224 217 202 186 186 192 200 201 202 196 187 172 186 178 189 330 12 339 353 338 342 328 360 356 348 337 341 330 327 328 328 319 320 323 316 313 318 305
228 251 314 122 128 180 189 2 233 233 243 27 273 235 183 197 200 202 202 202 192 199 204 191 205 214 219 307 336 339 330 340 338 348 349 342 337 336 331 323 323 319 319 317 313 310 309 300 297
243 171 150 138 154 211 304 242 253 254 244 219 240 218 192 202 204 203 205 203 200 205 209 210 209 229 239 296 315 321 318 324 336 322 329 334 326 324 317 314 315 313 313 309 310 306 301 300 296
74 175 156 191 170 200 264 257 275 236 235 223 206 209 207 206 205 201 204 204 203 211 213 203 205 224 253 287 305 306 313 324 319 315 328 322 319 316 315 317 312 307 307 309 306 301 298 294 293
142 193 248 210 191 229 278 251 236 238 199 217 209 215 212 212 209 211 205 210 207 208 205 200 206 203 239 268 274 291 307 315 318 325 326 326 325 322 318 311 307 306 309 308 299 294 290 285 286
214 249 228 125 185 136 197 262 185 209 201 219 216 216 213 216 215 212 212 206 203 201 195 195 188 205 226 267 288 302 308 313 316 323 320 323 323 318 313 308 305 311 309 304 299 299 297 291 288
210 255 220 175 200 185 217 277 90 160 223 235 227 223 219 218 217 214 210 209 204 198 194 195 198 210 219 252 275 289 293 295 297 301 310 323 316 316 311 307 306 311 304 300 299 297 294 293 290
195 226 220 245 150 219 234 257 270 235 233 240 240 230 226 221 220 210 209 205 202 200 200 197 198 205 205 232 258 265 274 271 308 303 305 316 315 318 318 309 308 310 303 300 300 300 296 293 291
321 270 254 125 125 255 241 261 269 268 255 240 237 232 225 225 220 211 206 201 200 200 199 200 201 203 203 217 263 277 290 310 301 319 323 321 319 321 316 312 311 311 306 305 302 298 296 291 293
246 259 254 125 162 261 293 280 277 262 248 242 242 236 233 230 218 207 205 196 198 199 202 201 206 203 197 202 233 263 299 303 313 294 291 322 324 322 316 316 309 309 307 305 306 307 307 301 301
235 250 249 302 301 239 292 265 242 212 251 254 243 249 249 235 224 211 205 201 197 200 197 204 197 199 196 192 215 241 257 267 291 322 319 326 321 318 315 313 310 308 304 304 311 309 303 301 298
243 51 105 310 308 294 318 292 286 248 221 217 226 214 217 219 224 223 204 205 201 198 195 195 193 190 191 188 222 253 290 299 316 307 309 313 314 313 316 312 309 305 302 301 295 289 287 290 286
40 45 36 353 281 312 175 249 246 167 249 177 198 205 193 194 203 210 213 197 203 192 186 188 189 193 189 194 218 248 276 295 308 304 307 311 307 309 310 310 311 305 305 299 293 288 275 264 270
127 107 88 238 266 251 157 229 261 234 193 141 140 164 170 183 188 197 197 196 199 182 177 185 189 198 190 200 205 231 273 295 304 306 306 305 307 309 308 307 302 298 294 290 292 289 282 276 269
233 198 234 222 199 254 124 216 266 220 174 165 146 151 162 162 166 164 170 185 192 180 189 192 195 198 195 202 206 230 265 287 288 299 299 309 308 310 308 314 302 302 300 298 294 292 287 284 279
188 275 254 262 225 62 131 232 241 40 97 182 240 220 162 174 166 170 175 179 186 190 197 199 193 201 192 200 206 223 245 263 282 283 297 296 300 305 309 303 305 301 297 296 291 283 279 277 273
150 212 7 318 121 274 233 239 275 246 228 227 213 194 190 177 176 181 180 185 191 194 204 204 203 203 199 196 198 222 234 248 271 285 288 292 300 299 299 303 304 301 299 297 296 286 283 281 280
262 37 174 205 245 248 212 269 257 219 218 205 197 201 193 184 186 180 186 195 204 207 205 206 209 205 198 193 207 223 235 254 275 284 291 296 298 300 303 305 304 303 301 300 295 291 291 290 286
172 208 201 339 233 259 281 244 342 303 180 175 164 187 196 189 190 185 192 204 207 207 206 202 204 203 196 194 205 215 230 248 267 280 291 296 302 301 305 306 307 306 303 299 297 296 297 291 286
296 231 185 216 193 233 306 251 331 141 235 217 185 177 182 184 181 169 191 207 206 215 213 209 206 207 201 196 201 210 223 236 256 273 295 299 301 304 310 308 307 305 301 304 305 301 300 291 289